Temperature
8 8 8 8 7 7 7 6 6 5 5 5 5 5 5 5 5 4 4 3 3 2 2 2 2 2 2 2 2 1 1 2 2 2 2 1 1 1
7 7 7 7 7 6 6 6 5 5 4 4 4 4 4 4 4 3 3 2 2 2 1 1 1 1 1 1 1 1 1 1 1 1 0 0 0 0
7 7 7 6 6 6 6 5 5 5 4 4 4 4 4 3 3 2 2 2 1 1 1 1 0 0 0 0 0 0 0 0 0 -0 -0 -1 -1 -1
6 6 6 6 6 5 5 5 4 4 4 3 3 3 3 2 2 2 1 1 1 1 0 0 0 0 0 0 0 -0 -0 -0 -0 -1 -1 -1 -2 -2
5 5 5 5 5 4 4 4 3 3 3 2 2 2 2 2 1 1 1 1 0 0 0 -0 -0 -0 -0 -0 -0 -1 -1 -1 -1 -1 -1 -2 -2 -2
4 4 4 3 3 3 3 2 2 2 2 2 1 1 1 1 1 1 0 0 0 -0 -0 -0 -0 -0 -1 -1 -1 -1 -1 -1 -1 -2 -2 -2 -2 -2
3 2 2 2 2 1 1 1 1 1 1 1 1 0 0 0 0 -0 -0 -1 -1 -1 -1 -1 -1 -1 -2 -2 -2 -2 -2 -2 -2 -2 -2 -2 -3 -3
2 1 1 1 0 0 0 -0 -0 -0 -0 -0 -0 -1 -1 -1 -1 -2 -2 -2 -2 -2 -2 -2 -2 -2 -2 -2 -2 -2 -2 -2 -2 -2 -3 -3 -3 -3
1 0 0 -0 -0 -1 -1 -1 -1 -1 -1 -1 -2 -2 -2 -3 -3 -3 -3 -3 -3 -4 -3 -2 -3 -3 -3 -3 -3 -3 -3 -3 -3 -3 -3 -3 -3 -3
-0 -0 -1 -1 -1 -1 -1 -2 -2 -2 -2 -3 -3 -4 -4 -4 -5 -5 -5 -5 -5 -5 -5 -4 -3 -3 -3 -3 -3 -3 -3 -3 -3 -4 -4 -4 -4 -4
-1 -1 -2 -2 -2 -3 -3 -3 -3 -4 -4 -4 -5 -5 -5 -6 -6 -6 -6 -6 -5 -5 -5 -5 -4 -4 -3 -3 -3 -3 -3 -3 -4 -4 -4 -4 -4 -4
-2 -2 -3 -3 -4 -4 -4 -4 -4 -5 -5 -5 -6 -6 -6 -6 -6 -6 -6 -6 -6 -6 -6 -6 -6 -6 -4 -3 -3 -4 -4 -4 -4 -4 -4 -4 -4 -4
-3 -3 -3 -4 -4 -5 -5 -5 -5 -6 -6 -6 -6 -6 -6 -6 -6 -6 -6 -6 -6 -6 -7 -7 -6 -6 -6 -5 -3 -3 -4 -4 -4 -4 -4 -4 -4 -4
-3 -4 -4 -5 -5 -5 -6 -6 -6 -6 -6 -6 -6 -6 -6 -6 -6 -6 -6 -6 -6 -6 -7 -7 -7 -7 -7 -6 -4 -3 -3 -4 -4 -4 -4 -4 -4 -4
-4 -4 -5 -5 -5 -6 -6 -6 -6 -6 -6 -6 -6 -6 -6 -6 -6 -6 -6 -6 -6 -6 -6 -7 -7 -7 -7 -7 -6 -5 -4 -3 -4 -4 -4 -5 -5 -5
-4 -4 -5 -5 -6 -6 -6 -6 -6 -6 -6 -6 -6 -6 -7 -7 -7 -6 -6 -6 -6 -6 -6 -7 -7 -7 -7 -7 -7 -6 -5 -5 -4 -5 -5 -5 -5 -5
-4 -4 -5 -5 -6 -6 -6 -7 -7 -7 -7 -7 -7 -7 -7 -7 -7 -7 -7 -7 -6 -6 -6 -6 -7 -7 -7 -7 -7 -6 -6 -6 -5 -6 -6 -6 -5 -5
-5 -5 -5 -5 -6 -6 -6 -7 -7 -7 -7 -7 -7 -7 -7 -7 -7 -7 -7 -7 -7 -7 -6 -7 -7 -8 -7 -7 -6 -6 -6 -6 -6 -7 -7 -7 -5 -5
-4 -5 -5 -5 -6 -6 -6 -7 -7 -7 -7 -7 -7 -7 -7 -7 -7 -7 -7 -8 -7 -7 -7 -7 -8 -9 -9 -9 -7 -7 -7 -7 -7 -7 -7 -7 -7 -5
-4 -5 -5 -5 -6 -6 -6 -6 -7 -7 -7 -7 -7 -7 -8 -8 -7 -7 -8 -8 -8 -8 -7 -7 -8 -9 -9 -9 -9 -7 -7 -8 -8 -7 -7 -7 -7 -6
-4 -4 -5 -5 -5 -6 -6 -6 -6 -6 -7 -7 -7 -7 -8 -8 -8 -8 -8 -8 -9 -8 -8 -8 -8 -9 -9 -10 -9 -8 -7 -8 -8 -8 -8 -8 -8 -7
-4 -4 -4 -5 -5 -5 -6 -6 -6 -6 -6 -7 -7 -7 -8 -8 -8 -8 -8 -9 -9 -9 -9 -8 -8 -9 -9 -9 -9 -8 -7 -7 -7 -8 -8 -9 -10 -9
-4 -4 -4 -4 -5 -5 -5 -6 -6 -6 -6 -7 -7 -7 -8 -8 -8 -9 -9 -9 -9 -9 -9 -9 -9 -9 -9 -9 -9 -9 -8 -8 -8 -8 -7 -7 -8 -8
Wind_Speed
3 3 2 2 2 1 1 2 3 4 4 2 2 2 3 3 5 6 8 13 15 15 14 10 7 5 6 7 8 8 9 10 10 10 11 12 13 14
5 6 5 4 4 3 2 1 1 3 3 1 1 2 3 2 3 3 4 7 9 9 8 7 6 7 8 9 9 10 10 10 11 12 13 13 13 14
7 7 7 6 5 5 4 3 3 1 3 1 1 2 2 1 2 3 3 2 2 3 3 3 4 6 6 7 8 9 10 10 11 12 12 12 13 13
8 8 7 6 7 5 4 4 3 3 1 1 1 2 2 2 2 3 4 4 2 1 2 4 5 6 7 7 8 8 8 9 10 11 12 12 13 14
8 8 7 7 7 5 5 5 4 3 3 1 2 2 2 2 3 3 3 4 3 2 3 4 4 5 6 7 7 9 10 10 11 12 13 14 14 15
8 7 7 6 6 5 5 5 4 4 4 3 2 2 2 2 2 2 2 3 2 3 3 4 4 5 6 8 9 11 11 12 13 14 15 15 15 15
8 8 8 9 8 6 5 4 4 4 4 3 3 2 3 3 2 2 2 2 2 2 2 2 4 6 9 10 11 12 14 14 15 15 15 15 15 15
7 6 7 9 11 12 11 10 7 5 3 3 2 3 2 2 2 2 1 2 2 2 2 3 3 4 8 10 11 12 13 14 15 15 15 15 15 15
6 6 5 7 8 6 9 11 11 12 8 3 2 2 2 1 1 1 1 0 2 2 2 3 2 4 7 9 11 12 13 13 13 13 14 14 15 15
5 4 5 5 5 6 6 6 6 6 7 5 3 1 1 1 1 1 1 1 3 3 2 3 3 3 4 10 12 11 11 11 12 12 13 13 14 14
4 4 4 4 7 8 5 4 4 5 7 7 5 4 5 4 1 2 1 1 3 2 1 2 3 3 4 4 7 6 5 6 8 10 12 13 14 16
3 4 6 5 7 6 3 2 3 3 3 4 5 5 5 5 4 2 3 3 2 3 2 1 2 3 4 3 3 7 8 11 12 12 13 15 16 14
1 2 4 7 7 7 4 0 3 1 1 2 3 3 2 2 3 2 1 4 4 5 3 2 2 1 3 4 4 4 7 7 9 11 15 17 18 16
1 2 4 7 7 7 4 5 5 3 1 1 2 2 2 2 2 4 4 6 7 9 8 4 4 4 3 4 6 4 4 7 10 10 12 15 16 16
2 4 6 7 6 4 5 5 3 2 1 2 2 3 3 3 3 4 5 6 8 11 13 12 7 5 5 6 6 6 5 5 6 6 6 6 6 7
2 4 5 6 4 4 3 3 2 2 2 2 3 3 3 2 3 2 3 4 4 4 5 8 10 7 6 9 10 11 8 6 5 5 6 7 10 13
3 1 1 2 2 2 2 2 2 2 2 2 3 3 4 4 4 3 3 3 4 5 5 4 8 11 10 9 10 12 12 11 11 9 7 10 10 9
2 1 2 2 3 3 3 3 3 3 3 3 3 4 4 5 5 4 4 5 7 8 7 5 4 4 4 8 14 13 11 11 9 8 7 10 13 9
2 2 3 4 4 4 4 3 3 4 3 4 4 5 5 5 5 6 6 6 7 8 8 6 5 5 7 9 6 13 10 8 8 9 9 10 13 12
3 4 4 4 4 4 4 4 4 4 4 5 5 5 5 5 6 7 6 7 8 8 9 7 7 8 9 9 7 7 13 12 11 13 12 11 12 17
4 5 5 5 5 5 5 5 5 5 5 5 6 6 6 6 7 7 7 12 11 9 10 10 8 11 8 7 10 10 8 16 18 12 10 11 14 14
5 5 5 5 5 5 5 5 5 6 6 6 6 6 6 6 8 9 9 9 9 10 11 11 8 7 6 9 14 15 15 12 16 25 26 24 13 8
6 5 5 5 5 5 5 6 7 6 6 7 7 7 6 7 8 9 9 10 10 11 11 12 9 8 10 11 14 15 18 17 13 13 14 22 29 34
Wind_Direction
30 35 46 32 26 333 239 221 245 278 281 260 280 340 317 282 252 228 220 223 220 221 220 215 202 202 232 245 253 261 266 268 270 271 274 275 276 278
45 55 50 35 37 29 15 347 254 253 272 313 312 351 324 308 259 211 197 211 215 214 211 212 218 236 250 256 258 261 265 268 271 273 276 278 279 279
50 58 52 43 43 32 30 30 19 341 278 349 43 357 349 349 29 80 113 142 191 227 237 246 255 258 258 260 263 267 268 270 274 277 279 280 281 281
52 55 48 49 47 37 39 40 29 14 348 330 17 11 13 19 48 69 74 81 78 356 302 286 277 270 266 266 269 272 273 275 276 276 276 278 279 280
57 57 50 53 50 40 41 38 26 22 23 49 35 27 25 33 53 58 65 55 61 27 327 310 308 297 285 280 278 277 277 277 276 274 273 274 276 276
55 53 50 54 58 49 45 37 34 36 37 53 49 36 32 27 50 54 58 44 36 19 347 334 332 327 314 299 287 283 280 276 273 271 271 271 272 272
52 44 44 49 58 66 63 47 43 44 44 47 41 32 27 26 33 29 51 27 25 21 352 333 322 308 299 295 288 279 272 269 268 268 268 268 269 269
52 38 37 41 44 48 53 51 51 53 46 47 37 39 24 21 20 32 45 29 341 3 353 294 281 278 282 283 281 275 270 266 264 264 264 265 267 269
53 43 39 35 45 41 44 43 39 43 50 71 57 34 13 2 59 32 33 2 271 296 340 288 296 282 281 282 287 283 274 267 264 263 264 265 267 269
49 45 39 18 37 54 48 38 30 30 44 57 77 23 300 237 186 173 195 280 286 272 211 270 300 283 284 292 297 291 277 266 263 263 267 268 269 272
27 28 38 15 21 41 56 36 20 5 19 29 26 10 354 331 240 136 119 15 313 293 240 250 297 300 291 292 304 313 314 304 290 280 277 277 278 278
15 9 10 7 7 22 79 43 355 326 343 355 359 358 1 4 22 140 170 172 231 285 279 245 294 333 317 293 275 285 293 299 298 292 288 285 282 281
6 349 335 346 351 355 11 294 295 326 51 342 331 336 353 8 20 23 169 173 192 240 252 186 240 248 254 293 294 263 265 276 284 283 284 285 282 276
298 294 303 327 338 345 348 328 350 40 34 337 331 332 331 320 312 312 293 255 237 242 255 224 223 215 242 277 282 283 262 259 265 272 272 280 281 277
257 301 322 336 350 349 332 343 23 31 340 320 308 293 274 270 287 302 298 287 276 266 261 242 224 234 237 259 271 281 298 279 254 258 265 261 260 263
300 309 329 340 350 342 348 4 2 310 293 279 283 283 287 285 287 287 293 309 305 292 265 248 235 222 248 255 266 276 274 275 282 260 263 269 267 259
255 196 336 335 333 330 324 319 318 323 324 301 292 296 296 295 291 287 278 286 277 286 292 271 255 244 239 251 265 266 269 269 268 274 276 279 274 259
286 188 259 271 278 286 295 301 298 291 284 278 280 280 285 288 290 284 268 268 273 277 279 280 281 289 273 256 239 254 260 263 267 262 256 272 280 269
242 232 249 257 260 264 264 261 265 269 269 270 268 269 270 273 276 278 274 270 271 274 274 268 258 255 277 286 262 229 239 259 266 268 261 259 271 276
222 238 245 248 249 252 254 256 262 270 266 263 263 262 259 262 269 270 267 264 271 276 277 262 244 238 246 267 274 260 244 252 264 269 271 268 269 275
241 241 241 243 245 247 250 251 254 260 262 261 261 260 257 256 263 266 267 274 276 275 275 273 256 262 262 262 269 269 252 248 251 257 265 273 280 281
242 243 244 243 242 245 248 250 255 257 260 258 259 259 257 254 262 267 267 269 269 267 271 275 270 263 251 257 267 277 283 276 265 266 262 259 262 267
239 241 242 243 242 243 244 247 252 257 256 257 260 260 257 260 261 263 265 266 268 272 276 281 279 266 263 261 268 275 279 283 284 278 269 259 257 259
Height
1503 1503 1503 1503 1502 1502 1502 1501 1500 1497 1496 1496 1496 1495 1494 1493 1492 1491 1492 1493 1495 1498 1500 1503 1505 1507 1509 1511 1512 1512 1513 1514 1515 1515 1516 1516 1517 1518
1499 1498 1498 1498 1498 1497 1497 1496 1495 1494 1493 1491 1491 1490 1489 1488 1487 1487 1488 1489 1491 1494 1496 1499 1500 1502 1503 1504 1506 1506 1507 1507 1508 1508 1509 1510 1510 1511
1495 1495 1494 1494 1494 1493 1493 1492 1491 1490 1489 1488 1486 1485 1485 1484 1483 1484 1485 1486 1488 1491 1493 1494 1496 1497 1498 1499 1500 1500 1501 1501 1501 1502 1502 1503 1503 1504
1492 1492 1491 1491 1490 1489 1489 1488 1487 1486 1485 1484 1483 1482 1482 1481 1481 1482 1483 1484 1486 1488 1489 1490 1491 1492 1493 1494 1494 1494 1494 1494 1494 1495 1495 1496 1496 1497
1490 1490 1489 1488 1487 1487 1486 1485 1484 1483 1482 1482 1481 1480 1480 1480 1480 1480 1481 1482 1483 1484 1485 1486 1486 1487 1487 1487 1487 1488 1487 1487 1488 1488 1489 1489 1490 1490
1488 1488 1487 1486 1486 1485 1484 1483 1482 1482 1481 1480 1480 1479 1479 1478 1478 1478 1479 1479 1479 1480 1480 1480 1481 1481 1481 1481 1481 1481 1481 1481 1481 1482 1482 1483 1483 1484
1487 1486 1486 1485 1484 1483 1483 1482 1481 1480 1479 1479 1478 1478 1477 1477 1476 1476 1476 1476 1476 1476 1475 1475 1475 1475 1475 1475 1474 1474 1474 1474 1475 1475 1476 1477 1478 1479
1486 1485 1485 1484 1483 1482 1481 1480 1480 1479 1477 1477 1476 1476 1475 1474 1474 1473 1473 1472 1472 1472 1471 1471 1470 1470 1469 1469 1468 1468 1468 1468 1469 1470 1470 1471 1472 1473
1485 1484 1483 1482 1482 1481 1479 1478 1477 1476 1476 1475 1474 1473 1473 1472 1471 1470 1470 1469 1469 1467 1467 1466 1466 1465 1464 1463 1463 1463 1463 1463 1463 1464 1465 1465 1466 1467
1484 1483 1482 1480 1479 1478 1477 1476 1475 1474 1472 1472 1471 1471 1470 1469 1468 1468 1467 1466 1465 1465 1463 1462 1461 1461 1460 1459 1458 1458 1458 1458 1458 1459 1459 1460 1460 1460
1482 1481 1479 1478 1477 1475 1474 1473 1472 1471 1470 1469 1469 1468 1467 1467 1466 1465 1464 1463 1462 1462 1460 1459 1458 1456 1456 1455 1454 1453 1453 1453 1453 1453 1453 1453 1453 1453
1480 1479 1477 1476 1474 1473 1472 1471 1470 1469 1468 1467 1466 1466 1465 1464 1463 1463 1462 1461 1460 1459 1458 1457 1455 1453 1451 1450 1450 1450 1449 1449 1448 1448 1448 1447 1447 1446
1478 1477 1475 1474 1472 1471 1470 1469 1468 1467 1466 1465 1464 1463 1463 1462 1461 1460 1460 1459 1458 1457 1457 1454 1452 1450 1449 1446 1445 1445 1445 1444 1443 1442 1441 1440 1439 1438
1476 1474 1473 1471 1470 1469 1468 1467 1466 1465 1464 1463 1462 1462 1461 1460 1459 1458 1457 1456 1455 1454 1453 1451 1448 1447 1444 1440 1438 1437 1437 1437 1435 1434 1433 1431 1431 1430
1473 1471 1470 1469 1467 1466 1465 1464 1464 1463 1462 1461 1460 1459 1458 1457 1457 1456 1454 1453 1451 1450 1449 1447 1445 1442 1440 1436 1433 1430 1429 1428 1427 1426 1425 1423 1422 1421
1470 1469 1467 1466 1465 1464 1463 1462 1461 1460 1459 1458 1457 1456 1455 1454 1453 1452 1450 1449 1447 1446 1444 1442 1439 1437 1434 1431 1428 1424 1423 1421 1419 1419 1416 1414 1414 1413
1467 1465 1464 1463 1462 1461 1460 1459 1458 1457 1456 1455 1454 1453 1452 1450 1449 1447 1445 1443 1441 1439 1438 1437 1434 1431 1428 1425 1421 1418 1416 1414 1413 1411 1408 1404 1404 1404
1464 1462 1461 1459 1458 1457 1456 1455 1455 1454 1452 1451 1450 1449 1447 1446 1444 1442 1440 1438 1435 1433 1431 1430 1427 1424 1420 1417 1416 1411 1409 1407 1405 1403 1400 1396 1393 1394
1461 1459 1457 1456 1455 1454 1452 1451 1451 1450 1448 1447 1446 1444 1442 1440 1439 1437 1435 1432 1430 1427 1425 1423 1421 1417 1413 1407 1405 1405 1402 1399 1397 1394 1392 1389 1384 1382
1457 1455 1454 1452 1451 1450 1449 1447 1446 1445 1444 1443 1441 1439 1437 1435 1433 1431 1428 1426 1423 1420 1417 1416 1415 1412 1408 1403 1396 1393 1395 1392 1389 1385 1382 1379 1375 1373
1453 1452 1450 1448 1447 1446 1444 1443 1442 1440 1439 1438 1436 1434 1432 1429 1427 1424 1422 1419 1416 1413 1410 1408 1407 1405 1400 1396 1389 1383 1384 1384 1381 1377 1373 1369 1365 1361
1449 1447 1446 1444 1443 1441 1440 1438 1437 1436 1434 1432 1430 1428 1426 1423 1420 1418 1415 1412 1409 1406 1402 1400 1398 1396 1393 1388 1382 1376 1373 1373 1371 1368 1365 1362 1359 1351
1444 1443 1442 1440 1439 1437 1435 1433 1432 1430 1429 1426 1424 1422 1419 1416 1413 1411 1408 1405 1401 1398 1395 1391 1389 1386 1383 1379 1374 1368 1363 1360 1358 1354 1352 1351 1349 1344